Home   Weather   Derby   Past weeks

Flag for United Kingdom Past Weather in Derby, England, United Kingdom — Yesterday and Last 2 Weeks

Now
45 °F

Sprinkles. Partly sunny.


Feels Like: 37 °F
Forecast: 35 / 47 °F
Wind: 16 mph from Northwest

Location: East Midlands

Current Time: Apr 25, 2017 at 5:40:42 pm

Latest Report: Apr 25, 2017 at 4:50 pm


Visibility: N/A

Pressure: 29.95 "Hg

Humidity: 61%

Dew Point: 32 °F

Location of DerbyLocation

Past Weather in Derby — Graph

°F

Derby Temperature Yesterday

Maximum temperature yesterday: 54 °F (at 12:20 pm)
Minimum temperature yesterday: 36 °F (at 11:20 pm)
Average temperature yesterday: 47 °F

High & Low Weather Summary for the Past Weeks

 TemperatureHumidityPressure
High57 °F (Apr 22, 1:20 pm)100% (Apr 20, 7:20 am)30.63 "Hg (Apr 20, 7:20 am)
Low30 °F (Apr 25, 4:50 am)40% (Apr 24, 5:50 pm)29.89 "Hg (Apr 24, 4:20 pm)
Average47 °F74%30.23 "Hg
* Reported Apr 10 3:20 pm — Apr 25 3:50 pm, Derby, Weather by CustomWeather, © 2017

Note: Actual official high and low records may vary slightly from our data, if they occured in-between our weather recording intervals... More about our weather records

Advertising

Derby Weather History for the Previous 24 Hours

Scroll right to see more
 ConditionsComfort  
Time TempWeatherWind HumidityBarometerVisibility
3:50 pm
Tue, Apr 25
45 °FScattered showers. Partly sunny.17 mph61%29.95 "HgN/A
3:20 pm50 °FScattered showers. Partly sunny.17 mph47%29.92 "HgN/A
2:50 pm48 °FScattered clouds.17 mph46%29.92 "HgN/A
2:20 pm46 °FPassing clouds.15 mph53%29.95 "HgN/A
1:50 pm45 °FScattered showers. Partly sunny.20 mph57%29.95 "HgN/A
1:20 pm46 °FScattered clouds.17 mph53%29.95 "HgN/A
12:50 pm41 °FSprinkles. Partly sunny.12 mph66%29.95 "HgN/A
12:20 pm45 °FPartly sunny.15 mph49%29.95 "HgN/A
11:50 am46 °FPartly sunny.14 mph53%29.95 "HgN/A
11:20 am45 °FPartly sunny.15 mph53%29.95 "HgN/A
10:50 am46 °FScattered clouds.12 mph46%29.95 "HgN/A
10:20 am43 °FPassing clouds.13 mph53%29.95 "HgN/A
9:50 am41 °FPassing clouds.14 mph57%29.95 "HgN/A
9:20 am41 °FSunny.10 mph66%29.95 "Hg10 mi
8:50 am39 °FSunny.8 mph70%29.95 "Hg10 mi
8:20 am37 °FSunny.8 mph75%29.95 "Hg10 mi
7:50 am36 °FSunny.8 mph81%29.95 "Hg10 mi
7:20 am34 °FSunny.8 mph93%29.95 "Hg10 mi
6:50 am32 °FSunny.10 mph100%29.92 "Hg10 mi
6:20 am32 °FSunny.9 mph93%29.92 "Hg10 mi
5:50 am30 °FSunny.9 mph100%29.89 "Hg10 mi
5:20 am32 °FClear.9 mph93%29.89 "Hg10 mi
4:50 am30 °FClear.10 mph100%29.89 "Hg10 mi
4:20 am32 °FClear.9 mph93%29.89 "Hg10 mi
3:20 am32 °FClear.10 mph93%29.89 "Hg10 mi
2:50 am32 °FPassing clouds.13 mph87%29.89 "HgN/A
2:20 am32 °FClear.9 mph80%29.89 "Hg10 mi
1:50 am34 °FClear.7 mph75%29.89 "Hg10 mi
1:20 am32 °FClear.9 mph93%29.89 "Hg10 mi
12:50 am34 °FClear.14 mph87%29.92 "Hg10 mi
12:20 am34 °FClear.12 mph87%29.92 "Hg10 mi
11:50 pm
Mon, Apr 24
36 °FPassing clouds.10 mph81%29.92 "HgN/A
11:20 pm36 °FPassing clouds.15 mph87%29.92 "HgN/A
10:50 pm37 °FClear.18 mph65%29.92 "Hg10 mi
10:20 pm37 °FClear.14 mph60%29.92 "Hg10 mi
9:50 pm39 °FClear.16 mph56%29.92 "Hg10 mi
9:20 pm41 °FClear.18 mph49%29.92 "Hg10 mi
8:50 pm41 °FPassing clouds.17 mph53%29.92 "HgN/A
8:20 pm43 °FPassing clouds.16 mph46%29.89 "HgN/A
7:50 pm43 °FPassing clouds.16 mph49%29.89 "HgN/A
7:20 pm45 °FPassing clouds.23 mph46%29.89 "HgN/A
6:50 pm46 °FPassing clouds.23 mph43%29.92 "HgN/A
6:20 pm48 °FPassing clouds.24 mph43%29.92 "HgN/A
5:50 pm50 °FPassing clouds.24 mph40%29.92 "HgN/A
5:20 pm52 °FPassing clouds.21 mph47%29.89 "HgN/A
Weather by CustomWeather, © 2017

See weather overviewHow to use our weather pages